Weather in Chetyrla

Russia / Samara Oblast     54°30′36″N   51°43′07″E
temp.,
°C
wind,
m/s
gust,
m/s
humid.,
%
clouds,
%
prec.,
mm/h
press.,
hPa
HPBL,
m
28 february, sun
sun2801:00−11nw579798 0.1 999166
04:00−12nnw589599 0.1 1000259
07:00−13nnw5995100 0.1 1002277
10:00−13nnw5895100 0.1 1004351
13:00−12nnw5793100 0.1 1006413
16:00−12nnw5893100 0.1 1008475
19:00−13nnw4895100 0.1 1010275
22:00−16nnw369893 0.1 1013134
1 march, mon
mon101:00−18nw239993 0.0 101427
04:00−20nnw3310091 0.1 101743
07:00−22nw2310074 0.0 101822
10:00−20nw349866 0.0 1020156
13:00−18nw349467 0.0 1021234
16:00−16nw359471 0.0 1021299
19:00−21wnw2210052 0.0 102120
22:00−22sw2210037 0.0 102120
2 march, tue
tue201:00−21ssw45982 0.0 101885
04:00−18ssw5109845 0.0 1015212
07:00−16s61297100 0.0 1011268
10:00−14ssw81394100 0.4 1008366
13:00−9ssw81393100 0.7 1005520
16:00−6ssw81494100 1.3 1002604
19:00−5s71395100 0.9 999525
22:00−3ssw61195100 1.8 998432
3 march, wed
wed301:00−2wsw3897100 0.4 997386
04:00−3w489698 0.6 997397
07:00−5wnw589799 0.3 998384
10:00−4nw589599 0.4 1000491
13:00−4nw5694100 0.1 1002445
16:00−4nw5793100 0.1 1003500
19:00−5nw4995100 0.1 1003556
22:00−7nw489799 0.3 1006204
4 march, thu
thu401:00−7nw5109594 0.3 1007374
04:00−11nw599697 0.4 1009221
07:00−14wnw479890 0.0 1010103
10:00−11w479690 0.1 1012236
13:00−8wsw599397 0.0 1011399
16:00−6sw7129096 0.0 1009549
19:00−6sw91592100 0.1 1007724
22:00−3sw101793100 0.7 1006826